Regional Weather Roundup
Issued by NWS

Home | Current Version | Previous Version | Text Only | Print | Product List | Glossary On
Versions: 1 2 3 4 5 6 7 8 9 10 11 12 13 14 15 16 17 18 19 20 21 22 23 24 25 26 27 28 29 30 31 32 33 34 35 36 37 38 39 40 41 42 43 44 45 46 47 48 49 50
575
ASUS43 KLSX 231710
RWRMO

WEATHER SUMMARY FOR MISSOURI
NATIONAL WEATHER SERVICE SPRINGFIELD MO
1200 PM CDT SUN APR 23 2017

NOTE: "FAIR" INDICATES FEW OR NO CLOUDS BELOW 12,000 FEET WITH NO
       SIGNIFICANT WEATHER AND/OR OBSTRUCTIONS TO VISIBILITY.
       CURRENT SKY AND/OR WEATHER CONDITIONS ARE NOT AVAILABLE FOR
       CHILLICOTHE AND FARMINGTON.

MOZ001>031-035>038-043-044-053-054-231800-
...NORTHERN AND WESTERN MISSOURI...

CITY           SKY/WX    TMP DP  RH WIND       PRES   REMARKS
KANSAS CTY INT MOSUNNY   64  34  32 CALM      30.16F
KANSAS C DTWN  SUNNY     65  31  28 CALM      30.15F
LEE`S SUMMIT   SUNNY     64  33  31 NE7       30.16F
ST JOSEPH      SUNNY     63  31  30 CALM      30.16F
CHILLICOTHE      N/A     66  34  30 CALM      30.15F
KIRKSVILLE     SUNNY     65  31  28 VRB5      30.14F

$$
MOZ066>068-077>081-088>096-101>105-231800-
...SOUTHWEST MISSOURI...

CITY           SKY/WX    TMP DP  RH WIND       PRES   REMARKS
SPRINGFIELD    SUNNY     62  37  39 N13       30.11F
JOPLIN         SUNNY     61  38  42 NE8       30.15S
BRANSON        SUNNY     59  37  44 N10G20    30.11F

$$
MOZ032>034-039>042-045>050-055>058-069>072-231800-
...CENTRAL MISSOURI...

CITY           SKY/WX    TMP DP  RH WIND       PRES   REMARKS
COLUMBIA       SUNNY     64  32  30 N13       30.13F
JEFFERSON CITY SUNNY     65  31  28 VRB5      30.13F
ROLLA          SUNNY     61  36  39 NE10      30.09F
WHITEMAN AFB   SUNNY     63  31  30 NE7       30.13F
OSAGE BEACH    SUNNY     62  33  33 NE9G17    30.13F

$$
MOZ051-052-059>065-231800-
...EAST CENTRAL MISSOURI...

CITY           SKY/WX    TMP DP  RH WIND       PRES   REMARKS
ST LOUIS INTL  SUNNY     65  31  28 NE12G18   30.10F
SPIRIT OF STL  SUNNY     65  36  34 N10       30.09F
ST CHARLES     SUNNY     66  34  30 NE13      30.09F

$$
MOZ072>076-082>087-097>100-106>115-231800-
...SOUTH CENTRAL AND SOUTHEAST MISSOURI...

CITY           SKY/WX    TMP DP  RH WIND       PRES   REMARKS
CAPE GIRARDEAU SUNNY     61  43  51 N21G28    29.98F
FARMINGTON     SUNNY     60  33  36 N15G22    30.06F
POPLAR BLUFF   SUNNY     62  42  47 N20G26    29.99F
WEST PLAINS    SUNNY     62  37  39 NE16G23   30.06F

$$




USA.gov is the U.S. government's official web portal to all federal, state and local government web resources and services.